Tracking 31027 objects as of 19-Jul-2025
HD Live streaming from Space Station
objects crossing your sky now

METEOR 2-17 DEB

Track METEOR 2-17 DEB now!
10-day predictions


NORAD ID: 38281
Int'l Code: 1988-005AJ
Perigee: 875.4 km
Apogee: 899.9 km
Inclination: 82.5 °
Period: 102.6 minutes
Semi major axis: 7258 km
RCS: 0.0059 m2 (small)
Launch date: January 30, 1988
Source: Commonwealth of Independent States (former USSR) (CIS)
Launch site: PLESETSK MISSILE AND SPACE COMPLEX (PKMTR)

Note: This is SATELLITE DEBRIS
Your satellite tracking list
Your tracking list is empty




NASA's NSSDC Master Catalog

Two Line Element Set (TLE):
1 38281U 88005AJ  25196.23227552  .00002074  00000-0  13049-2 0  9996
2 38281  82.5277 178.3598 0016900 115.4530 244.8392 14.03841110544223
Source of the keplerian elements: AFSPC